User: anonymous   Login
Location: The Jewett Observatory
(46.7288°N, 117.1525°W)
Time: 04:26:50
(UTC-08:00)
Language:

Cosmos 1844 Rocket - Orbit

View from above orbital plane
View from above orbital plane
View from above satellite
View from above satellite

Ground track
Ground track

The orbit data is extracted from the following two-line orbital elements,

1 17974U 87041B   16342.21714029 -.00000119  00000-0 -35195-4 0  9990
2 17974  71.0066 314.2994 0015360 318.9675 129.3440 14.17212444529487
Epoch (UTC): 07 December 2016 05:12:40
Eccentricity: 0.0015360
inclination: 71.0066°
perigee height: 824 km
apogee height: 846 km
right ascension of ascending node: 314.2994°
argument of perigee: 318.9675°
revolutions per day: 14.17212444
mean anomaly at epoch: 129.3440°
orbit number at epoch: 52948

The dashed part of the orbit path shows where the satellite is in the earth's shadow,  

DLR